This demonstration page uses our WeatherBlox Daily Observations layout. Learn more.

38.89511, -77.03637

Hourly Observations for August 17, 2015

Temp ( °F °C ) Dew Point ( °F °C ) Humidity (%) Winds ( mph kmh ) Pressure ( in mb ) Visibility ( mi km ) Precip ( " mm )
12:52 am 00:52 Mostly Clear 76 24.4 67 19.4 74 74 SSW 7 11 30.13 1020 10 16.0934 0 0
1:52 am 01:52 Partly Cloudy 75 23.9 67 19.4 76 76 S 7 11 30.13 1020 10 16.0934 0 0
2:52 am 02:52 Mostly Clear 74 23.3 67 19.4 79 79 SSW 3 6 30.12 1020 10 16.0934 0 0
3:52 am 03:52 Mostly Clear 74 23.3 67 19.4 79 79 SSW 3 6 30.12 1020 10 16.0934 0 0
4:52 am 04:52 Partly Cloudy 73 22.8 68 20 84 84 S 5 7 30.12 1020 10 16.0934 0 0
5:52 am 05:52 Mostly Clear 72 22.2 67 19.4 84 84 SSW 7 11 30.12 1020 10 16.0934 0 0
6:52 am 06:52 Mostly Sunny 73 22.8 67 19.4 81 81 SSW 5 7 30.13 1020 10 16.0934 0 0
7:52 am 07:52 Sunny 75 23.9 67 19.4 76 76 SSW 6 9 30.14 1021 10 16.0934 0 0
8:52 am 08:52 Sunny 77 25 69 20.6 77 77 SSE 7 11 30.13 1020 10 16.0934 0 0
9:52 am 09:52 Sunny 80 26.7 70 21.1 71 71 S 6 9 30.13 1020 10 16.0934 0 0
10:52 am 10:52 Sunny 85 29.4 72 22.2 65 65 S 7 11 30.13 1020 10 16.0934 0 0
11:52 am 11:52 Sunny 87 30.6 71 21.7 59 59 SSE 6 9 30.11 1020 10 16.0934 0 0
12:52 pm 12:52 Mostly Sunny 91 32.8 69 20.6 49 49 S 8 13 30.1 1019 10 16.0934 0 0
1:52 pm 13:52 Partly Cloudy 95 35 69 20.6 43 43 SSE 9 15 30.08 1019 10 16.0934 0 0
2:52 pm 14:52 Partly Cloudy 93 33.9 69 20.6 46 46 S 9 15 30.06 1018 10 16.0934 0 0
3:52 pm 15:52 Mostly Sunny 93 33.9 70 21.1 47 47 S 10 17 30.04 1017 10 16.0934 0 0
4:52 pm 16:52 Mostly Sunny 93 33.9 70 21.1 47 47 S 13 20 30.03 1017 10 16.0934 0 0
5:52 pm 17:52 Mostly Sunny 91 32.8 69 20.6 49 49 S 13 20 30.02 1017 10 16.0934 0 0
6:52 pm 18:52 Mostly Sunny 89 31.7 67 19.4 48 48 S 10 17 30.02 1017 10 16.0934 0 0
7:52 pm 19:52 Partly Cloudy 87 30.6 69 20.6 55 55 S 12 19 30.02 1017 10 16.0934 0 0
8:52 pm 20:52 Partly Cloudy 84 28.9 70 21.1 63 63 S 12 19 30.03 1017 10 16.0934 0 0
9:52 pm 21:52 Mostly Clear 82 27.8 66 18.9 58 58 S 8 13 30.05 1018 10 16.0934 0 0
10:52 pm 22:52 Partly Cloudy 80 26.7 68 20 67 67 S 12 19 30.05 1018 10 16.0934 0 0
11:52 pm 23:52 Partly Cloudy 78 25.6 69 20.6 74 74 SSW 8 13 30.06 1018 10 16.0934 0 0

Powered by AerisWeather